Regional Weather Roundup
Issued by NWS

Home | Current Version | Previous Version | Graphics & Text | Print | Product List | Glossary On
Versions: 1 2 3 4 5 6 7 8 9 10 11 12 13 14 15 16 17 18 19 20 21 22 23 24 25 26 27 28 29 30 31 32 33 34 35 36 37 38 39 40 41 42 43 44 45 46 47 48
000
ASUS45 KCYS 280910
RWRWY

WYOMING REGIONAL WEATHER ROUNDUP
NATIONAL WEATHER SERVICE CHEYENNE WY
300 AM MDT MON JUL 28 2014

NOTE:  "FAIR" INDICATES FEW OR NO CLOUDS BELOW 12,000 FEET
WITH NO SIGNIFICANT WEATHER AND/OR OBSTRUCTIONS TO VISIBILITY.

WYZ001-281000-
YELLOWSTONE NATIONAL PARK

CITY           SKY/WX    TMP DP  RH WIND       PRES   REMARKS
LK YELLOWSTONE   N/A     42  34  73 NW3       30.51F
W YELLOWSTONE  NOT AVBL

$$
WYZ002>013-054>058-071-098>099-281000-
NORTHERN WYOMING

CITY           SKY/WX    TMP DP  RH WIND       PRES   REMARKS
JACKSON        CLEAR     54  37  54 CALM      30.38S
CODY           NOT AVBL
GREYBULL       CLEAR     63  41  44 CALM      30.24S
WORLAND        CLEAR     69  38  32 E9        30.24F
SHERIDAN       CLEAR     57  44  62 SE3       30.29S
BUFFALO        CLEAR     59  40  49 S6        30.36F
GILLETTE       CLEAR     54  44  69 CALM      30.36R
HULETT         FAIR      55  50  82 MISG      30.37
NEWCASTLE      FAIR      57  43  58 CALM      30.37

$$
WYZ014>020-022>026-101>103-281000-
CENTRAL WYOMING

CITY           SKY/WX    TMP DP  RH WIND       PRES   REMARKS
BIG PINEY      CLEAR     55  27  34 NW3       30.44S
PINEDALE       SUNNY     46  36  66 NW6       30.44F
DUBOIS         FAIR      50  28  43 NW9       30.46S
LANDER         CLEAR     66  29  24 W12       30.32S
RIVERTON       CLEAR     63  40  42 NE9       30.33S
CASPER         CLEAR     53  43  68 NW6       30.35R
DOUGLAS        CLEAR     60  47  61 SE9       30.35S

$$
WYZ021-027>030-104>119-281000-
SOUTHERN WYOMING

CITY           SKY/WX    TMP DP  RH WIND       PRES   REMARKS
EVANSTON       MOCLDY    66  23  19 E6        30.39R
KEMMERER       SUNNY     61  27  27 N12       30.42S
FORT BRIDGER   FAIR      62  22  21 NE8       30.41S
ROCK SPRINGS   CLEAR     63  42  46 NE6       30.38S
DIXON          FAIR      56  45  65 SE5       30.39S
RAWLINS        CLEAR     57  50  77 NE7       30.42R
SARATOGA       FAIR      54  48  82 CALM      30.44R
LARAMIE        CLEAR     55  52  89 SE12      30.46S
CHEYENNE       CLEAR     60  52  74 SW3       30.41R
TORRINGTON     PTCLDY    62  48  60 E10       30.31F
PINE BLUFFS    FAIR      63  46  55 SE6       30.37S

$$


USA.gov is the U.S. government's official web portal to all federal, state and local government web resources and services.